Weather History for Jackson, WY

Change the Weather History Date:

Tuesday, January 15, 2013

  Actual Average Record
Temperature  
Mean Temperature -2 °F -  
Max Temperature 6 °F 29 °F 45 °F (1973)
Min Temperature -9 °F 7 °F -28 °F (1964)
Degree Days  
Heating Degree Days 66    
Moisture  
Dew Point -3 °F    
Average Humidity 89    
Maximum Humidity 92    
Minimum Humidity 78    
Precipitation  
Precipitation 0.00 in - - ()
Sea Level Pressure  
Sea Level Pressure 30.33 in    
Wind  
Wind Speed 1 mph (NE)    
Max Wind Speed 5 mph    
Max Gust Speed -    
Visibility 7 miles    
Events Snow    
Averages and records for this station are not official NWS values.
T = Trace of Precipitation, MM = Missing Value Source: NWS Daily Summary

Daily Weather History Graph

Daily Weather History Graph

Search for Another Location

Airport:

Trip Planner

Search our weather history database for the weather conditions in past years. The results will help you decide how hot, cold, wet, or windy it might be!

Date:

Astronomy

Jan. 15, 2013 Rise Set
Actual Time 7:53 AM MST 5:12 PM MST
Civil Twilight 7:21 AM MST 5:44 PM MST
Nautical Twilight 6:45 AM MST 6:19 PM MST
Astronomical Twilight 6:11 AM MST 6:53 PM MST
Moon 9:50 AM MST (1/15) 10:16 PM MST (1/15)
Length of Visible Light 10h 22m
Length of Day
9h 19m
Waxing Crescent, 20% of the Moon is Illuminated
Jan 15
Waxing Crescent
Jan 18
First Quarter
Jan 26
Full
Feb 3
Last Quarter
Feb 10
New

Hourly Weather History & Observations

Time (MST) Temp. Windchill Dew Point Humidity Pressure Visibility Wind Dir Wind Speed Gust Speed Precip Events Conditions
12:15 AM -2.2 °F - -5.8 °F 85% 30.19 in 3.0 mi Calm Calm - N/A   Overcast
12:35 AM -2.2 °F - -5.8 °F 85% 30.19 in 7.0 mi Calm Calm - N/A   Overcast
12:55 AM -4.0 °F - -5.8 °F 92% 30.20 in 5.0 mi Calm Calm - N/A   Overcast
2:15 AM -5.8 °F - -7.6 °F 92% 30.23 in 10.0 mi Calm Calm - N/A   Overcast
2:35 AM -4.0 °F - -5.8 °F 92% 30.23 in 10.0 mi Calm Calm - N/A   Overcast
2:55 AM -5.8 °F - -7.6 °F 92% 30.24 in 10.0 mi Calm Calm - N/A   Overcast
3:15 AM -7.6 °F -18.8 °F -9.4 °F 92% 30.25 in 10.0 mi East 4.6 mph - N/A   Scattered Clouds
3:35 AM -7.6 °F - -9.4 °F 92% 30.25 in 10.0 mi Calm Calm - N/A   Clear
3:55 AM -7.6 °F -18.8 °F -9.4 °F 92% 30.26 in 8.0 mi North 4.6 mph - N/A   Clear
4:15 AM -9.4 °F - -11.2 °F 92% 30.26 in 2.5 mi Calm Calm - N/A   Scattered Clouds
4:35 AM -7.6 °F -16.5 °F -9.4 °F 92% 30.25 in 2.0 mi East 3.5 mph - N/A   Mostly Cloudy
4:56 AM -5.8 °F -14.5 °F -9.4 °F 84% 30.27 in 5.0 mi ENE 3.5 mph - N/A   Overcast
5:15 AM -7.6 °F -18.8 °F -9.4 °F 92% 30.28 in 10.0 mi NW 4.6 mph - N/A   Overcast
5:35 AM -5.8 °F - -7.6 °F 92% 30.27 in 10.0 mi Calm Calm - N/A   Overcast
5:55 AM -4.0 °F - -5.8 °F 92% 30.27 in 9.0 mi Calm Calm - N/A   Overcast
6:15 AM -4.0 °F - -5.8 °F 92% 30.28 in 8.0 mi Calm Calm - N/A   Overcast
6:35 AM -4.0 °F - -5.8 °F 92% 30.29 in 10.0 mi Calm Calm - N/A   Overcast
6:51 AM -4.0 °F - -5.8 °F 92% 30.30 in 10.0 mi Calm Calm - N/A   Mostly Cloudy
7:51 AM -2.2 °F - -5.8 °F 85% 30.30 in 4.0 mi Calm Calm - N/A Snow Light Snow
8:51 AM -2.2 °F - -5.8 °F 85% 30.33 in 5.0 mi Calm Calm - N/A   Mostly Cloudy
9:57 AM 1.4 °F - -2.2 °F 85% 30.33 in 10.0 mi Calm Calm - N/A   Mostly Cloudy
10:51 AM 1.4 °F - -2.2 °F 85% 30.35 in 10.0 mi North - - N/A   Scattered Clouds
11:51 AM 3.2 °F - -0.4 °F 85% 30.34 in 2.0 mi Calm Calm - N/A Snow Light Snow
12:15 PM 5.0 °F - -0.4 °F 78% 30.34 in 4.0 mi Calm Calm - N/A Snow Light Snow
12:51 PM 3.2 °F - -0.4 °F 85% 30.34 in 3.0 mi Calm Calm - N/A Snow Light Snow
1:55 PM 5.0 °F - 1.4 °F 85% 30.33 in 3.0 mi Calm Calm - N/A   Mostly Cloudy
2:51 PM 6.8 °F -2.0 °F 1.4 °F 79% 30.35 in 7.0 mi SSE 4.6 mph - N/A   Scattered Clouds
3:53 PM 6.8 °F -0.1 °F 1.4 °F 79% 30.37 in 10.0 mi SE 3.5 mph - N/A   Clear
4:51 PM 6.8 °F - 1.4 °F 79% 30.38 in 10.0 mi Calm Calm - N/A   Scattered Clouds
5:52 PM -0.4 °F - -2.2 °F 92% 30.38 in 10.0 mi Calm Calm - N/A   Scattered Clouds
6:55 PM -0.4 °F - -2.2 °F 92% 30.41 in 10.0 mi Calm Calm - N/A   Scattered Clouds
7:51 PM -0.4 °F - -2.2 °F 92% 30.41 in 10.0 mi Calm Calm - N/A   Scattered Clouds
8:51 PM 1.4 °F -8.3 °F -0.4 °F 92% 30.42 in 10.0 mi North 4.6 mph - N/A   Scattered Clouds
8:55 PM 1.4 °F - -0.4 °F 92% 30.42 in 9.0 mi Calm Calm - N/A   Overcast
9:35 PM 3.2 °F - 1.4 °F 92% 30.42 in 5.0 mi Calm Calm - N/A   Overcast
10:15 PM 3.2 °F - 1.4 °F 92% 30.42 in 6.0 mi Calm Calm - N/A   Overcast
10:35 PM 3.2 °F - 1.4 °F 92% 30.43 in 2.5 mi Calm Calm - N/A   Overcast
10:55 PM 3.2 °F - 1.4 °F 92% 30.43 in 3.0 mi Calm Calm - N/A   Overcast
11:15 PM 5.0 °F -2.1 °F 3.2 °F 92% 30.43 in 2.5 mi NNW 3.5 mph - N/A   Overcast
11:35 PM 5.0 °F - 3.2 °F 92% 30.44 in 2.5 mi Calm Calm - N/A   Overcast
11:55 PM 6.8 °F - 3.2 °F 85% 30.45 in 3.0 mi Calm Calm - N/A   Overcast